[[{"header":{"parameterUnit":"m.s-1","parameterCategory":1,"la1":30.2991,"la2":30.254,"lo1":-89.0895,"lo2":-89.0444,"dy":0.0017,"dx":0.0017,"nx":28,"ny":28,"refTime":"2024-04-04T03:00:00:Z","depth":0,"parameterNumber":2,"parameterNumberName":"U-component_of_WINDS"},"data":[0,0,0,0,0,0,0,0,0,0,0,0,0,0,0,0,0,0,0,0,0,0,0,0,0,0,0,0,0,0,0,0,0,0,0,0,0,0,0,0,0,0,0,0,0,0,0,0,0,0,0,0,0,0,0,0,0,0,3.1156,3.1157,0,3.1207,3.1207,3.1208,3.1145,3.1143,3.1141,3.1138,3.1189,3.1193,3.1196,0,0,0,0,0,0,0,0,0,0,0,0,0,3.1005,3.1008,3.1156,3.1157,3.1157,3.1207,3.1207,3.1208,3.1146,3.1143,3.114,3.1137,3.1188,3.1192,3.1197,0,0,0,0,0,0,0,0,0,0,0,0,0,3.1065,3.1009,3.1156,3.1132,3.113,3.1206,3.1207,3.1208,3.1146,3.1143,3.1139,3.1136,3.1187,3.1192,3.1197,3.1299,0,0,3.1213,3.1215,0,0,0,0,0,0,0,0,3.1061,3.107,3.1135,3.1134,3.1132,3.1166,3.1173,3.1238,3.1147,3.114,3.1138,3.1134,3.1184,3.119,3.1207,3.1301,3.1303,3.1214,3.1217,3.1219,3.1221,0,0,0,0,0,0,0,3.1057,3.1068,3.1176,3.1136,3.1134,3.1119,3.1123,3.1185,3.1181,3.1141,3.1136,3.1143,3.1183,3.1202,3.1207,3.1304,3.1214,3.1218,3.1221,3.1223,3.1485,3.1488,0,0,0,0,0,0,3.1056,3.1065,3.1174,3.1177,3.1088,3.1124,3.113,3.1159,3.118,3.118,3.1146,3.114,3.1194,3.1201,3.1209,3.1329,3.1219,3.1224,3.1227,3.1481,3.1485,3.1489,0,0,0,0,0,0,3.1053,3.1066,3.1172,3.112,3.1132,3.1131,3.1164,3.1161,3.118,3.1184,3.1183,3.1166,3.1192,3.1202,3.1277,3.133,3.1226,3.1231,3.1476,3.1482,3.1487,3.1571,0,0,0,0,0,0,3.1049,3.1066,3.1104,3.1121,3.1135,3.124,3.1167,3.1165,3.119,3.1182,3.1203,3.1203,3.119,3.1269,3.1282,3.1335,3.1235,3.1472,3.1479,3.1486,3.1563,3.1579,3.1592,0,0,0,0,0,3.1044,3.1125,3.1106,3.112,3.1183,3.1243,3.1251,3.1235,3.1194,3.1233,3.1235,3.1202,3.1323,3.1278,3.1291,3.1347,3.1468,3.1477,3.1485,3.1557,3.1576,3.1591,0,0,0,0,0,0,3.1114,3.1127,3.1106,3.1196,3.1219,3.1232,3.128,3.1255,3.129,3.1282,3.126,3.1265,3.1346,3.1354,3.1304,3.1447,3.1388,3.14,3.1438,3.1456,3.147,3.1466,3.124,0,0,0,0,0,3.114,3.1187,3.1196,3.1274,3.1287,3.1282,3.1307,3.1293,3.1316,3.1325,3.1333,3.1357,3.14,3.1428,3.1468,3.1564,3.1568,3.161,3.1624,3.1635,3.1646,3.1697,3.1716,3.1517,3.1517,3.1517,0,0,3.1194,3.1207,3.1238,3.1289,3.1305,3.1355,3.1291,3.1345,3.1382,3.1333,3.1405,3.1412,3.1437,3.1523,3.1562,3.1533,3.1702,3.1646,3.1656,3.1659,3.1708,3.1727,3.1744,3.1523,3.1522,3.1521,0,0,3.1317,3.1332,3.1399,3.1417,3.1442,3.1439,3.1455,3.1473,3.1476,3.1547,3.1512,3.1555,3.163,3.1649,3.1668,3.1801,3.1771,3.1814,3.1889,3.1939,3.1955,3.1969,3.2016,3.2033,3.1825,3.1825,3.1825,0,3.1381,3.1454,3.1437,3.1494,3.1518,3.1477,3.1545,3.1563,3.16,3.1617,3.1584,3.1677,3.1691,3.1781,3.1814,3.1831,3.1849,3.1812,3.1954,3.1968,3.198,3.2025,3.2043,3.183,3.1829,3.1829,3.1828,0,3.1532,3.1583,3.1634,3.1672,3.1701,3.1763,3.1755,3.1787,3.1771,3.1771,3.1845,3.186,3.1902,3.1923,3.1907,3.2011,3.1993,3.1958,3.1898,3.2005,3.2046,3.2063,3.1837,3.1835,3.1834,3.1833,0,0,3.17,3.1727,3.1746,3.1763,3.1789,3.1828,3.1889,3.1931,3.1959,3.1986,3.2037,3.2101,3.2069,3.2092,3.2078,3.2123,3.2227,3.2082,3.2082,3.2108,3.2343,3.2369,3.2389,3.2208,3.2211,3.2214,3.2341,0,3.1823,3.1929,3.1915,3.2016,3.2064,3.2026,3.2079,3.2101,3.2103,3.2143,3.2145,3.2191,3.2146,3.2159,3.2202,3.2205,3.2273,3.2196,3.2254,3.2257,3.2249,3.241,3.2438,3.2557,3.2357,3.2359,3.2361,0,3.1981,3.2015,3.2121,3.214,3.216,3.2208,3.2245,3.2285,3.2309,3.2307,3.2333,3.2311,3.2372,3.2313,3.2397,3.2344,3.2368,3.2373,3.2377,3.2382,3.2315,3.2419,3.2594,3.2612,3.2387,3.2385,3.2383,0,3.2093,3.2165,3.2238,3.2253,3.2277,3.2312,3.2324,3.2344,3.2371,3.2404,3.2421,3.2461,3.2482,3.2514,3.2504,3.2461,3.259,3.2529,3.259,3.259,3.2618,3.2616,3.2799,3.2634,3.2634,3.2633,3.2633,0,3.2232,3.2298,3.2288,3.2333,3.2407,3.2391,3.2464,3.2471,3.249,3.2535,3.2505,3.2549,3.2533,3.2576,3.2568,3.2639,3.2649,3.2649,3.2646,3.2652,3.2652,3.2666,3.2657,3.2638,3.2637,3.2636,3.2635,0,3.2369,3.2365,3.2442,3.2459,3.2465,3.2518,3.2532,3.2575,3.2575,3.2633,3.2645,3.2645,3.2694,3.2688,3.2742,3.2737,3.2825,3.2812,3.2817,3.2814,3.2874,3.2869,3.3073,3.3099,3.2917,3.2919,3.292,0,3.2458,3.2508,3.2531,3.2559,3.2573,3.262,3.2647,3.2633,3.2662,3.2694,3.2733,3.2779,3.2815,3.2894,3.2899,3.294,3.2928,3.2997,3.2934,3.2938,3.2929,3.2926,3.2931,3.3009,3.3011,3.3013,3.3014,0,3.2615,3.2611,3.2651,3.2692,3.2725,3.2755,3.2783,3.2808,3.2797,3.2832,3.2881,3.291,3.2965,3.3011,3.3051,3.3062,3.3037,3.3034,3.305,3.3056,3.3056,3.3057,3.285,3.3029,3.3028,3.3027,3.3026,3.3025,3.2731,3.2774,3.2797,3.2842,3.2862,3.2889,3.293,3.2935,3.2976,3.3021,3.301,3.3067,3.309,3.314,3.3156,3.32,3.3175,3.3198,3.3204,3.321,3.3217,3.305,3.3207,3.3207,3.3206,3.3206,3.3206,0,3.2887,3.29,3.2942,3.2982,3.3019,3.2992,3.3022,3.3054,3.3104,3.3128,3.3164,3.3222,3.3267,3.3276,3.3318,3.3352,3.3341,3.3363,3.336,3.3364,3.3237,3.3219,3.3371,3.3371,3.3371,3.3371,3.3371,3.3371,3.2972,3.3043,3.3042,3.3124,3.3136,3.3191,3.321,3.3235,3.3254,3.332,3.3357,3.3363,3.3381,3.3425,3.3465,3.3467,3.3484,3.3511,3.3508,3.3389,3.3372,3.3357,3.3339,3.3515,3.3515,3.363,3.3631,3.3632]},{"header":{"parameterUnit":"m.s-1","parameterCategory":1,"la1":30.2991,"la2":30.254,"lo1":-89.0895,"lo2":-89.0444,"dy":0.0017,"dx":0.0017,"nx":28,"ny":28,"refTime":"2024-04-04T03:00:00:Z","depth":0,"parameterNumber":3,"parameterNumberName":"V-component_of_WINDS"},"data":[0,0,0,0,0,0,0,0,0,0,0,0,0,0,0,0,0,0,0,0,0,0,0,0,0,0,0,0,0,0,0,0,0,0,0,0,0,0,0,0,0,0,0,0,0,0,0,0,0,0,0,0,0,0,0,0,0,0,-3.5195,-3.5197,0,-3.5358,-3.536,-3.5362,-3.5326,-3.5323,-3.532,-3.5317,-3.5486,-3.5493,-3.55,0,0,0,0,0,0,0,0,0,0,0,0,0,-3.4855,-3.4862,-3.5195,-3.5197,-3.5199,-3.5358,-3.536,-3.5362,-3.5327,-3.5323,-3.532,-3.5316,-3.5483,-3.5492,-3.5501,0,0,0,0,0,0,0,0,0,0,0,0,0,-3.5009,-3.4864,-3.5195,-3.52,-3.5203,-3.5357,-3.536,-3.5363,-3.5328,-3.5323,-3.5319,-3.5314,-3.5481,-3.5491,-3.5502,-3.5661,0,0,-3.5536,-3.554,0,0,0,0,0,0,0,0,-3.5,-3.5022,-3.5198,-3.52,-3.5203,-3.5317,-3.5302,-3.5463,-3.5329,-3.528,-3.5317,-3.5312,-3.5434,-3.5448,-3.5489,-3.5669,-3.5676,-3.5537,-3.5543,-3.5548,-3.5551,0,0,0,0,0,0,0,-3.499,-3.5014,-3.5259,-3.52,-3.5204,-3.5196,-3.5213,-3.5332,-3.5381,-3.5284,-3.5282,-3.5302,-3.5434,-3.5478,-3.5492,-3.5679,-3.5536,-3.5546,-3.5553,-3.5557,-3.6,-3.6005,0,0,0,0,0,0,-3.4977,-3.5006,-3.5254,-3.5264,-3.5088,-3.5206,-3.5224,-3.5285,-3.5379,-3.5389,-3.5305,-3.5299,-3.5462,-3.548,-3.5498,-3.5692,-3.5548,-3.5558,-3.5565,-3.5995,-3.6002,-3.6007,0,0,0,0,0,0,-3.4969,-3.4999,-3.5248,-3.5135,-3.5166,-3.5216,-3.5285,-3.5291,-3.5335,-3.5395,-3.5404,-3.5342,-3.5459,-3.5483,-3.5621,-3.5698,-3.5563,-3.5573,-3.5989,-3.5997,-3.6004,-3.6081,0,0,0,0,0,0,-3.496,-3.4997,-3.5057,-3.5136,-3.5172,-3.5368,-3.529,-3.5297,-3.5354,-3.5347,-3.5431,-3.5441,-3.5457,-3.5605,-3.5632,-3.571,-3.5582,-3.5983,-3.5993,-3.6002,-3.6072,-3.609,-3.6106,0,0,0,0,0,-3.4948,-3.5072,-3.506,-3.5091,-3.5248,-3.5372,-3.5393,-3.5408,-3.536,-3.5422,-3.5461,-3.5438,-3.5685,-3.562,-3.565,-3.5732,-3.5978,-3.599,-3.6001,-3.6064,-3.6087,-3.6106,0,0,0,0,0,0,-3.5001,-3.5083,-3.507,-3.5224,-3.5291,-3.5366,-3.5444,-3.5431,-3.5514,-3.5505,-3.5521,-3.5541,-3.5682,-3.5721,-3.5647,-3.5892,-3.5824,-3.5843,-3.5862,-3.5884,-3.5901,-3.5889,-3.5591,0,0,0,0,0,-3.503,-3.5124,-3.519,-3.5319,-3.5354,-3.5393,-3.5448,-3.5454,-3.5525,-3.5553,-3.5602,-3.5672,-3.5766,-3.5827,-3.5916,-3.6077,-3.6096,-3.6149,-3.6166,-3.618,-3.6196,-3.6286,-3.6311,-3.6045,-3.6045,-3.6045,0,0,-3.5093,-3.5149,-3.5206,-3.5331,-3.5384,-3.5481,-3.5418,-3.5522,-3.5595,-3.5569,-3.5704,-3.5742,-3.5821,-3.5973,-3.6042,-3.6009,-3.6273,-3.6195,-3.6205,-3.6214,-3.63,-3.6325,-3.6348,-3.6053,-3.6052,-3.6051,0,0,-3.5255,-3.5307,-3.5421,-3.5475,-3.5556,-3.5582,-3.5609,-3.5687,-3.5711,-3.5846,-3.5829,-3.5916,-3.6076,-3.6134,-3.6184,-3.637,-3.6353,-3.6399,-3.6489,-3.6577,-3.6597,-3.6616,-3.6684,-3.6708,-3.6414,-3.6415,-3.6415,0,-3.5323,-3.5467,-3.5481,-3.5588,-3.5644,-3.5625,-3.5742,-3.5794,-3.59,-3.594,-3.5902,-3.6104,-3.6155,-3.6321,-3.6366,-3.6407,-3.644,-3.639,-3.6593,-3.6612,-3.663,-3.6695,-3.672,-3.642,-3.6419,-3.6419,-3.6418,0,-3.5547,-3.5648,-3.573,-3.5833,-3.5898,-3.601,-3.6041,-3.6106,-3.6107,-3.6137,-3.6275,-3.6337,-3.6439,-3.6478,-3.648,-3.6645,-3.6622,-3.6589,-3.6521,-3.666,-3.6721,-3.6746,-3.6427,-3.6425,-3.6424,-3.6422,0,0,-3.5748,-3.5857,-3.5888,-3.5935,-3.6023,-3.6102,-3.6213,-3.6313,-3.6369,-3.6443,-3.6537,-3.6674,-3.6644,-3.6701,-3.6709,-3.6786,-3.6931,-3.6743,-3.6745,-3.6777,-3.7118,-3.7144,-3.7172,-3.692,-3.6925,-3.6929,-3.7112,0,-3.592,-3.6115,-3.6131,-3.6307,-3.6401,-3.6385,-3.6482,-3.6547,-3.6579,-3.6664,-3.6698,-3.6796,-3.6748,-3.6782,-3.6857,-3.6898,-3.7,-3.6884,-3.7009,-3.7014,-3.6991,-3.7204,-3.7231,-3.7401,-3.7136,-3.714,-3.7143,0,-3.6146,-3.6227,-3.6413,-3.649,-3.653,-3.6616,-3.671,-3.6791,-3.6866,-3.6883,-3.6948,-3.6946,-3.7061,-3.6989,-3.7149,-3.707,-3.7122,-3.7149,-3.7156,-3.7169,-3.7087,-3.7224,-3.7456,-3.7482,-3.7181,-3.7178,-3.7175,0,-3.6276,-3.6432,-3.6563,-3.6604,-3.6696,-3.6758,-3.6799,-3.6869,-3.6928,-3.701,-3.7049,-3.7144,-3.7196,-3.7269,-3.7293,-3.7238,-3.7453,-3.7382,-3.7472,-3.7472,-3.7519,-3.7516,-3.7763,-3.7551,-3.755,-3.755,-3.7549,0,-3.6467,-3.6582,-3.6623,-3.6704,-3.6832,-3.685,-3.6976,-3.7015,-3.7077,-3.7166,-3.7158,-3.7242,-3.7268,-3.7357,-3.7376,-3.7507,-3.753,-3.7549,-3.7553,-3.755,-3.7548,-3.7585,-3.7575,-3.7556,-3.7555,-3.7554,-3.7552,0,-3.6634,-3.6666,-3.6809,-3.6884,-3.6906,-3.6998,-3.7063,-3.7142,-3.7172,-3.7285,-3.7312,-3.736,-3.7464,-3.7495,-3.7621,-3.7634,-3.7788,-3.778,-3.7763,-3.7763,-3.7852,-3.7844,-3.8133,-3.8173,-3.7933,-3.7935,-3.7937,0,-3.6754,-3.6842,-3.6928,-3.6987,-3.7031,-3.7125,-3.7186,-3.7207,-3.7271,-3.7363,-3.7431,-3.7534,-3.7618,-3.7786,-3.7832,-3.7928,-3.7924,-3.8019,-3.7939,-3.7934,-3.7927,-3.7923,-3.7932,-3.8034,-3.8037,-3.8039,-3.804,0,-3.6965,-3.6977,-3.7064,-3.7158,-3.7231,-3.7306,-3.7378,-3.7427,-3.7459,-3.7531,-3.7637,-3.7702,-3.7831,-3.7934,-3.8032,-3.8075,-3.8065,-3.8065,-3.8092,-3.8091,-3.8077,-3.8087,-3.7805,-3.8059,-3.8057,-3.8056,-3.8055,-3.8054,-3.7114,-3.7192,-3.7264,-3.7363,-3.7419,-3.7487,-3.7565,-3.7605,-3.7694,-3.78,-3.7807,-3.7923,-3.7997,-3.8127,-3.8176,-3.8268,-3.824,-3.8278,-3.8288,-3.8297,-3.8305,-3.8062,-3.8286,-3.8285,-3.8285,-3.8284,-3.8284,0,-3.7325,-3.7371,-3.7462,-3.7563,-3.7641,-3.7623,-3.7702,-3.7768,-3.787,-3.794,-3.8022,-3.8146,-3.8246,-3.83,-3.8401,-3.8464,-3.8461,-3.8489,-3.8486,-3.8496,-3.8323,-3.8291,-3.849,-3.849,-3.849,-3.849,-3.849,-3.849,-3.7445,-3.7576,-3.7597,-3.7756,-3.7802,-3.7915,-3.7962,-3.8025,-3.8081,-3.8219,-3.8302,-3.8337,-3.8401,-3.8506,-3.8598,-3.8611,-3.8649,-3.8681,-3.8692,-3.8529,-3.8508,-3.8488,-3.8458,-3.8689,-3.8689,-3.8857,-3.8859,-3.886]}]]